Location: Unspecified
(0.0000°N, 0.0000°E)
Time: 20:50:05
(UTC+00:00)

STARLINK-1526 - Visible Passes

Search period start: 06 March 2026 00:00
Search period end: 16 March 2026 00:00
Orbit: 519 x 521 km, 53.1° (Epoch: 6 March)

Date Brightness Start Highest point End Pass type
(mag) Time Alt. Az. Time Alt. Az. Time Alt. Az.
11 Mar 6.4 20:03:07 10° SSW 20:03:08 10° SSW 20:03:08 10° SSW visible
12 Mar 5.2 19:46:33 10° SSW 19:48:20 25° SSW 19:48:20 25° SSW visible
13 Mar 3.4 19:29:45 10° SSW 19:33:29 63° SE 19:33:29 63° SE visible
14 Mar 3.3 19:12:44 10° SSW 19:16:40 76° ESE 19:18:34 29° NE visible
15 Mar 3.4 18:55:30 10° SSW 18:59:25 88° ESE 19:03:19 10° NE visible
